Flag for Chile Weather past 2 weeks in Osorno, Chile

Now
52 °F

Mostly cloudy.


Feels Like: 49 °F
Forecast: N/A
Wind: 9 mph from North

Location: Puerto Montt Airport

Current Time: Sep 2, 2014 at 6:26:00 PM

Latest Report: Sep 2, 2014 at 6:00 PM


Visibility: N/A

Pressure: 29.86 "Hg

Humidity: 82%

Dew point: 46 °F

Location of OsornoLocation

Historic Weather in Osorno — Graph

°F

Osorno temperature yesterday

Maximum temperature yesterday: 57 °F (at 4:00 PM)
Minimum temperature yesterday: 50 °F (at 12:00 AM)
Average temperature yesterday: 54 °F

Past Weeks' High & Low Weather Summary

 TemperatureHumidityPressure
High61 °F (Aug 31, 3:00 PM)100% (Aug 19, 12:00 AM)30.39 "Hg (Aug 19, 12:00 AM)
Low37 °F (Aug 31, 7:00 AM)51% (Aug 31, 4:00 PM)29.68 "Hg (Aug 30, 3:00 AM)
Average50 °F86%29.98 "Hg
* Reported Aug 18 5:00 PM — Sep 2 5:00 PM, Osorno, Weather by CustomWeather, © 2014

Note: Actual official high and low records may vary slightly from our data, if they occured in-between our weather recording intervals... More about our weather records

Advertising

Osorno weather history for previous 24 hours

 ConditionsComfort  
Time TempWeatherWind HumidityBarometerVisibility
5:00 PM
Sep 2
54 °FMore clouds than sun.12 mph88%29.86 "HgN/A
4:00 PM54 °FSprinkles. Mostly cloudy.12 mph88%29.86 "Hg5 mi
3:00 PM54 °FSprinkles. Partly sunny.12 mph88%29.86 "Hg4 mi
2:00 PM55 °FPartly sunny.16 mph82%29.86 "HgN/A
1:00 PM54 °FRain showers. Partly sunny.15 mph88%29.86 "Hg4 mi
12:00 PM54 °FSprinkles. Partly sunny.12 mph88%29.89 "Hg4 mi
11:00 AM54 °FPartly sunny.13 mph88%29.89 "HgN/A
10:00 AM54 °FPartly sunny.13 mph88%29.86 "HgN/A
9:00 AM52 °FSprinkles. Partly sunny.8 mph94%29.86 "Hg4 mi
8:00 AM50 °FPartly sunny.10 mph94%29.86 "HgN/A
7:00 AM50 °FPartly sunny.10 mph94%29.83 "HgN/A
6:00 AM52 °FPassing clouds.15 mph88%29.83 "HgN/A
5:00 AM50 °FPassing clouds.10 mph94%29.80 "HgN/A
4:00 AM50 °FSprinkles. Passing clouds.9 mph94%29.80 "Hg3 mi
3:00 AM50 °FPassing clouds.10 mph94%29.83 "HgN/A
2:00 AM52 °FPassing clouds.13 mph88%29.83 "HgN/A
1:00 AM50 °FSprinkles. Passing clouds.14 mph94%29.80 "Hg5 mi
12:00 AM50 °FSprinkles. Overcast.18 mph94%29.80 "Hg3 mi
11:00 PM
Sep 1
52 °FPartly cloudy.13 mph88%29.80 "HgN/A
10:00 PM52 °FSprinkles. Passing clouds.16 mph88%29.80 "Hg5 mi
9:00 PM52 °FPassing clouds.14 mph88%29.77 "HgN/A
8:00 PM54 °FSprinkles. Passing clouds.15 mph82%29.77 "Hg3 mi
7:00 PM55 °FPassing clouds.8 mph82%29.71 "HgN/A
6:00 PM55 °FPassing clouds.13 mph82%29.71 "HgN/A
Weather by CustomWeather, © 2014

See weather overviewHow to use our weather pages